VE3GSI Weather Reports


Display with metric or nautical units.
time (UTC)temp
F
wind
direction
speed
MPH
gust
MPH
rain 1hr
in
rain 24hr
in
rain mn
in
humidity
%
barometer
mb
20260504034604 46 208 2.0 5.0 0.00 0.00 0.00 85 1005.7
20260504033604 46 207 4.0 7.0 0.00 0.00 0.00 83 1005.9
20260504032604 46 200 5.0 7.0 0.00 0.00 0.00 82 1005.9
20260504031604 46 204 5.0 7.0 0.00 0.00 0.00 81 1006.2
20260504030604 46 227 3.0 8.0 0.00 0.00 0.00 80 1006.3
20260504025604 46 212 2.0 7.0 0.00 0.00 0.00 79 1006.3
20260504024604 46 202 4.0 8.0 0.00 0.00 0.00 78 1006.4
20260504023604 46 207 2.0 6.0 0.00 0.00 0.00 78 1006.5
20260504021604 46 219 3.0 6.0 0.00 0.00 0.00 76 1006.6
20260504015604 46 226 4.0 9.0 0.00 0.00 0.00 74 1006.5
20260504014604 46 214 6.0 12.0 0.00 0.00 0.00 74 1006.5
20260504013604 47 220 3.0 8.0 0.00 0.00 0.00 74 1006.4
20260504012604 47 224 4.0 6.0 0.00 0.00 0.00 73 1006.4
20260504011604 47 241 2.0 10.0 0.00 0.00 0.00 71 1006.4
20260504010604 48 224 5.0 10.0 0.00 0.00 0.00 70 1006.4
20260504004605 48 207 5.0 12.0 0.00 0.00 0.00 67 1006.3
20260504002604 49 207 6.0 15.0 0.00 0.00 0.00 63 1006.2
20260504001604 50 240 9.0 17.0 0.00 0.00 0.00 62 1006.1
20260504000604 50 208 5.0 17.0 0.00 0.00 0.00 62 1006.0
20260503235604 50 206 6.0 12.0 0.00 0.00 0.00 62 1006.0
20260503234604 51 196 3.0 7.0 0.00 0.00 0.00 63 1006.0
20260503233604 51 199 3.0 5.0 0.00 0.00 0.00 62 1006.0
20260503230604 52 179 3.0 6.0 0.00 0.00 0.00 57 1006.1
20260503225604 52 270 6.0 9.0 0.00 0.00 0.00 53 1006.1
20260503224604 53 222 2.0 8.0 0.00 0.00 0.00 56 1006.3
20260503223605 53 228 4.0 12.0 0.00 0.00 0.00 55 1006.4
20260503222605 54 213 7.0 12.0 0.00 0.00 0.00 51 1006.5
20260503220605 56 231 6.0 15.0 0.00 0.00 0.00 42 1006.4
20260503215605 56 249 6.0 12.0 0.00 0.00 0.00 40 1006.2
20260503214605 56 271 6.0 14.0 0.00 0.00 0.00 40 1006.2
20260503211604 57 229 9.0 20.0 0.00 0.00 0.00 38 1006.1
20260503210605 58 220 9.0 20.0 0.00 0.00 0.00 38 1006.1
20260503205605 58 214 9.0 18.0 0.00 0.00 0.00 36 1006.2
20260503204606 57 272 7.0 18.0 0.00 0.00 0.00 37 1006.3
20260503203605 58 197 6.0 13.0 0.00 0.00 0.00 39 1006.5
20260503202605 57 228 8.0 20.0 0.00 0.00 0.00 42 1006.6
20260503201605 56 232 6.0 18.0 0.00 0.00 0.00 43 1006.7
20260503200605 57 351 10.0 17.0 0.00 0.00 0.00 42 1006.8
20260503195605 57 318 8.0 21.0 0.00 0.00 0.00 43 1006.9
20260503194604 56 219 6.0 20.0 0.00 0.00 0.00 45 1007.0
20260503193605 56 250 7.0 16.0 0.00 0.00 0.00 46 1007.1
20260503192605 56 239 9.0 16.0 0.00 0.00 0.00 43 1007.3
20260503190605 57 221 11.0 17.0 0.00 0.00 0.00 45 1007.3
20260503185605 56 201 7.0 14.0 0.00 0.00 0.00 45 1007.6
20260503184605 56 222 10.0 20.0 0.00 0.00 0.00 46 1007.7
20260503183605 57 226 9.0 21.0 0.00 0.00 0.00 45 1007.8
20260503182605 56 222 7.0 13.0 0.00 0.00 0.00 45 1007.9
20260503181605 55 203 10.0 21.0 0.00 0.00 0.00 45 1008.1
20260503180604 56 215 9.0 18.0 0.00 0.00 0.00 45 1008.2
20260503174604 55 227 12.0 18.0 0.00 0.00 0.00 43 1008.4
20260503173605 56 223 11.0 20.0 0.00 0.00 0.00 43 1008.5
20260503172604 56 239 10.0 22.0 0.00 0.00 0.00 43 1008.6
20260503171605 55 224 8.0 18.0 0.00 0.00 0.00 44 1008.7
20260503170604 55 225 11.0 20.0 0.00 0.00 0.00 42 1008.9
20260503150605 51 246 6.0 14.0 0.00 0.00 0.00 37 1010.4
20260503130604 45 294 3.0 8.0 0.00 0.00 0.00 51 1011.3
20260503110604 31 235 0.0 0.0 0.00 0.00 0.00 92 1011.3
20260503081605 34 235 1.0 3.0 0.00 0.00 0.00 78 1011.3
20260503072604 38 272 1.0 3.0 0.00 0.00 0.00 70 1011.3
20260503071604 38 278 2.0 5.0 0.00 0.00 0.00 72 1011.3
20260503070604 37 250 2.0 5.0 0.00 0.00 0.00 72 1011.3
20260503054604 38 243 3.0 5.0 0.00 0.00 0.00 74 1011.5
20260503052604 37 250 1.0 5.0 0.00 0.00 0.00 78 1011.6
20260503051605 36 263 2.0 3.0 0.00 0.00 0.00 79 1011.6
20260503050604 37 266 2.0 3.0 0.00 0.00 0.00 80 1011.8
20260503045604 37 268 2.0 3.0 0.00 0.00 0.00 81 1011.7
20260503044604 37 282 2.0 3.0 0.00 0.00 0.00 82 1011.7
20260503043604 36 282 2.0 3.0 0.00 0.00 0.00 84 1011.8
20260503042604 36 282 2.0 3.0 0.00 0.00 0.00 86 1011.9
20260503041605 36 282 0.0 2.0 0.00 0.00 0.00 85 1011.9
20260503040604 36 282 0.0 0.0 0.00 0.00 0.00 85 1011.9
20260503035605 37 282 0.0 0.0 0.00 0.00 0.00 84 1011.9